Volver al catálogo

DELTA 1 DEB

ActivoSSO
NORAD 13579·DEBRIS·🇺🇸 United States

Lanzado Mar 5, 1978 desde Vandenberg Space Force Base

Loading…

Próximos Pases (próximas 24 horas)

TLE

ActualizadoSource: Space-Track

Época: Sep 14, 2026, 22:24 UTC

1 13579U 78026FS  26257.93351144  .00000677  00000-0  29153-3 0  9993
2 13579  98.9263 256.7423 0017092 193.6277 166.4444 14.27959710326642

Sigue DELTA 1 DEB en tiempo real con AllMySat

Download on the App Store